Lexington Weather

Lexington, Massachusetts, USA

78°F
7/25/2024 12:47pm 
  • Lexington Conditions: Mostly cloudy
  • Temperature: 77.7°F / 25.4°CWarmer 0.9°F than last hour.
  • Dew Point: 72.1°FIncreased 0.1°Fsince last hour.
  • Relative Humidity: 83%Decreased 2.0% since last hour.
  • Wind: Wind from SSW SSW Calm, 10-min avg: 2 mph, gust: 7 mph
  • Barometer: 29.93 in Steady
  • Visibility: 10 miles
  • Rain Today: 0.00 in
  •   

Regional Weather Roundup
for Boston, MA

        
000
ASUS41 KBOX 190610
RWRBOX

REGIONAL WEATHER ROUNDUP
NATIONAL WEATHER SERVICE BOSTON/NORTON MA
200 AM EDT FRI JUL 19 2024

NOTE:  "FAIR" INDICATES FEW OR NO CLOUDS BELOW 12,000 FEET WITH NO 
SIGNIFICANT WEATHER AND/OR OBSTRUCTIONS TO VISIBILITY.

MAZALL-190700-
EASTERN MASSACHUSETTS
  
CITY           SKY/WX    TMP DP  RH WIND       PRES   REMARKS
BOSTON         PTCLDY    72  57  59 NW10G18   29.98R                  
6HR MIN TEMP:  72; 6HR MAX TEMP:  81;                                

BEVERLY        CLEAR     68  57  68 NW12      29.97R                  
LAWRENCE       CLEAR     68  56  65 N6        30.00R                  
BEDFORD        CLEAR     66  58  75 NW7       29.98R                  
NORWOOD        CLEAR     65  62  90 NW3       29.98R                  
MARSHFIELD     PTCLDY    68  61  77 VRB5      29.96R                  
PLYMOUTH       CLEAR     69  58  67 NW6       29.96S                  
TAUNTON        CLEAR     66  59  78 CALM      29.97R                  
NEW BEDFORD    MOCLDY    71  60  68 CALM      29.96R                  
$$

MAZALL-190700-
CAPE COD AND THE ISLANDS
  
CITY           SKY/WX    TMP DP  RH WIND       PRES   REMARKS
FALMOUTH       CLEAR     72  59  64 W5        29.96S                  
HYANNIS        CLEAR     72  59  63 NW7       29.93S                  
CHATHAM        CLEAR     75  59  57 VRB7      29.94S                  
PROVINCETOWN   CLEAR     70  64  81 NW10      29.96R                  
NANTUCKET      CLEAR     75  64  68 NW9       29.94S                  
MARTHAS VNYRD  CLEAR     74  58  57 NW12      29.95S                  
$$
 
MAZALL-190700-
CENTRAL AND WESTERN MASSACHUSETTS
  
CITY           SKY/WX    TMP DP  RH WIND       PRES   REMARKS
WORCESTER      CLEAR     66  56  70 NW8       30.02S                  
6HR MIN TEMP:  66; 6HR MAX TEMP:  75;                                

FITCHBURG      CLEAR     64  59  83 CALM      30.01R                  
ORANGE         CLEAR     61  58  90 NW3       30.03S                  
SPRINGFIELD    CLEAR     63  56  78 NE3       29.98S                  
WESTFIELD      CLEAR     66  56  70 N9        30.01S                  
NORTH ADAMS    CLEAR     58  58 100 CALM      30.05S                  
PITTSFIELD     CLEAR     61  54  77 NW9       30.05S                  
$$
 
RIZALL-190700-
RHODE ISLAND
  
CITY           SKY/WX    TMP DP  RH WIND       PRES   REMARKS
PROVIDENCE     CLEAR     71  57  61 NW10      29.98R                  
6HR MIN TEMP:  68; 6HR MAX TEMP:  78;                                

NEWPORT        CLEAR     68  60  75 NW7       29.97S                  
BLOCK ISLAND   PTCLDY    69  60  73 NW6         N/A                   
SMITHFIELD     CLEAR     65  60  84 NW7       30.00R                  
WESTERLY       CLEAR     70  58  65 VRB5      29.98R                  
$$
 
CTZALL-190700-
CONNECTICUT
  
CITY           SKY/WX    TMP DP  RH WIND       PRES   REMARKS
BRADLEY INTL   PTCLDY    67  56  67 NE3       30.01S                  
6HR MIN TEMP:  67; 6HR MAX TEMP:  77;                                

HARTFORD       CLEAR     68  56  65 CALM      30.01S                  
PLAINVILLE     CLEAR     67  57  71 CALM      30.01S                  
BRIDGEPORT     CLEAR     71  56  58 N9        30.01R                  
DANBURY        CLEAR     66  57  72 CALM      30.05R                  
GROTON         CLEAR     71  57  61 NW12      29.98R                  
NEW HAVEN      CLEAR     72  57  59 NW7       30.01R                  
CHESTER        CLEAR     68  57  68 NW7       30.01S                  
MERIDEN        CLEAR     64  56  75 CALM      30.01S                  
WILLIMANTIC    CLEAR     64  59  83 CALM      30.01R                  
OXFORD         CLEAR     63  56  78 CALM      30.05R                  
$$

MEZ002-015-021-024-NHZ003-005-008-011-012-014-VTZ005-008-190700-
NORTHERN NEW ENGLAND
  
CITY           SKY/WX    TMP DP  RH WIND       PRES   REMARKS
PORTLAND ME    CLEAR     66  54  65 NW9       29.97R                  
6HR MIN TEMP:  65; 6HR MAX TEMP:  78;                                

BANGOR ME      CLEAR     64  56  75 W5        29.93S                  
CONCORD NH     CLEAR     62  54  74 CALM      30.01R                  
MANCHESTER NH  CLEAR     69  54  58 NW10      29.99R                  
NASHUA NH      CLEAR     67  60  78 NW6       30.01R                  
PORTSMOUTH NH  PTCLDY    69  55  62 NW8       29.97R                  
JAFFREY NH     CLEAR     61  56  83 CALM      30.04S                  
KEENE NH       CLEAR     59  58  96 CALM      30.03R                  
BURLINGTON VT  CLEAR     64  55  72 CALM      30.04S                  
MT. WASHINGTON FOG       41  41 100 NW36G45     N/A  VSB 1/16WCI  29  
$$

NYZ052-076-190700-
EASTERN NEW YORK
  
CITY           SKY/WX    TMP DP  RH WIND       PRES   REMARKS
ALBANY         PTCLDY    64  56  75 NW7       30.05S                  
6HR MIN TEMP:  63; 6HR MAX TEMP:  74;                                

NEW YORK CITY  PTCLDY    74  55  51 N10       30.02R                  
6HR MIN TEMP:  74; 6HR MAX TEMP:  82;                                

$$
 
ANZALL-190700-
MARINE OBSERVATIONS
  
STATION/POSITION TIME  TEMP    WIND        PRES    VSBY  WAVE
                       AIR SEA DIR/SP/G                  HT/PER
                 (UTC) (F)     (DEG/KT/KT) (MB)    (MI)  (FT/S)
BOSTON BUOY      0550   65 62  310/  8/ 10 1015.1R         1/ 9
BUZZARDS BAY     0500   73     330/ 10/ 11 1014.4R
NANTUCKET SOUND  0550   77 76  320/ 16/ 19 1013.2R         1/ 3
MASS BAY-STELLWA 0404   65 62  310/  6/  8 1013.9R  1 7/8  2/ 8
ISLE OF SHOALS   0500   70     330/ 12/ 13 1013.8R
S OF BLOCK IS    0556      74                N/A           6/ 9
$$

......................KEY.........................
  SKY/WX - SKY CONDITION/PRESENT WEATHER
  TMP    - TEMPERATURE IN FAHRENHEIT
  DWPT   - DEWPOINT IN FAHRENHEIT
  RH     - RELATIVE HUMIDITY IN PERCENT
  WIND   - DIRECTION AND SPEED IN MPH
  PRES   - MEAN SEA LEVEL PRESSURE IN INCHES OF HG
  WCI    - WIND CHILL INDEX
  VSB    - VISIBILITY IN MILES
  HX     - HEAT INDEX
  TC     - TEMPERATURE IN CELSIUS
  VRB    - VARIABLE WIND DIRECTION
  N/A    - NOT AVAILABLE
  
      

Other recent Regional Weather Roundups

Thu Jul 25, 12:10pm EDT

Thu Jul 25, 11:10am EDT

Thu Jul 25, 10:10am EDT

Thu Jul 25, 9:10am EDT

Thu Jul 25, 8:10am EDT

Thu Jul 25, 7:10am EDT

Thu Jul 25, 6:10am EDT

Thu Jul 25, 5:10am EDT

Thu Jul 25, 4:10am EDT

Thu Jul 25, 3:10am EDT

Thu Jul 25, 2:10am EDT

Thu Jul 25, 1:10am EDT

Thu Jul 25, 12:10am EDT

Wed Jul 24, 11:10pm EDT

Wed Jul 24, 10:10pm EDT

Wed Jul 24, 9:10pm EDT

Wed Jul 24, 8:10pm EDT

Wed Jul 24, 7:10pm EDT

Wed Jul 24, 6:10pm EDT

Wed Jul 24, 5:10pm EDT

Wed Jul 24, 4:10pm EDT

Wed Jul 24, 3:10pm EDT

Wed Jul 24, 2:10pm EDT

Wed Jul 24, 1:10pm EDT

Wed Jul 24, 12:10pm EDT

Wed Jul 24, 11:10am EDT

Wed Jul 24, 10:10am EDT

Wed Jul 24, 9:10am EDT

Wed Jul 24, 8:10am EDT

Wed Jul 24, 7:10am EDT

Wed Jul 24, 6:10am EDT

Wed Jul 24, 5:10am EDT

Wed Jul 24, 4:10am EDT

Wed Jul 24, 3:10am EDT

Wed Jul 24, 2:10am EDT

Wed Jul 24, 1:10am EDT

Wed Jul 24, 12:10am EDT

Tue Jul 23, 11:10pm EDT

Tue Jul 23, 10:10pm EDT

Tue Jul 23, 9:10pm EDT

Tue Jul 23, 8:10pm EDT

Tue Jul 23, 7:10pm EDT

Tue Jul 23, 6:10pm EDT

Tue Jul 23, 5:10pm EDT

Tue Jul 23, 4:10pm EDT

Tue Jul 23, 3:10pm EDT

Tue Jul 23, 2:10pm EDT

Tue Jul 23, 1:10pm EDT

Tue Jul 23, 12:10pm EDT

Tue Jul 23, 11:10am EDT

Tue Jul 23, 10:10am EDT

Tue Jul 23, 10:10am EDT

Tue Jul 23, 9:10am EDT

Tue Jul 23, 8:10am EDT

Tue Jul 23, 7:10am EDT

Tue Jul 23, 6:10am EDT

Tue Jul 23, 5:10am EDT

Tue Jul 23, 4:10am EDT

Tue Jul 23, 3:10am EDT

Tue Jul 23, 2:10am EDT

Tue Jul 23, 1:10am EDT

Tue Jul 23, 12:10am EDT

Mon Jul 22, 11:10pm EDT

Mon Jul 22, 10:10pm EDT

Mon Jul 22, 9:10pm EDT

Mon Jul 22, 8:10pm EDT

Mon Jul 22, 7:10pm EDT

Mon Jul 22, 6:10pm EDT

Mon Jul 22, 5:10pm EDT

Mon Jul 22, 4:10pm EDT

Mon Jul 22, 3:10pm EDT

Mon Jul 22, 2:10pm EDT

Mon Jul 22, 1:10pm EDT

Mon Jul 22, 12:10pm EDT

Mon Jul 22, 11:10am EDT

Mon Jul 22, 10:10am EDT

Mon Jul 22, 9:10am EDT

Mon Jul 22, 8:10am EDT

Mon Jul 22, 7:10am EDT

Mon Jul 22, 6:10am EDT

Mon Jul 22, 5:10am EDT

Mon Jul 22, 4:10am EDT

Mon Jul 22, 3:10am EDT

Mon Jul 22, 2:10am EDT

Mon Jul 22, 1:10am EDT

Mon Jul 22, 12:10am EDT

Sun Jul 21, 11:10pm EDT

Sun Jul 21, 10:10pm EDT

Sun Jul 21, 9:10pm EDT

Sun Jul 21, 8:10pm EDT

Sun Jul 21, 7:10pm EDT

Sun Jul 21, 6:10pm EDT

Sun Jul 21, 5:10pm EDT

Sun Jul 21, 4:10pm EDT

Sun Jul 21, 3:10pm EDT

Sun Jul 21, 2:10pm EDT

Sun Jul 21, 1:10pm EDT

Sun Jul 21, 12:10pm EDT

Sun Jul 21, 11:10am EDT

Sun Jul 21, 10:10am EDT

Sun Jul 21, 9:10am EDT

Sun Jul 21, 8:10am EDT

Sun Jul 21, 7:10am EDT

Sun Jul 21, 6:10am EDT

Sun Jul 21, 5:10am EDT

Sun Jul 21, 4:10am EDT

Sun Jul 21, 3:10am EDT

Sun Jul 21, 2:10am EDT

Sun Jul 21, 1:10am EDT

Sun Jul 21, 12:10am EDT

Sat Jul 20, 11:10pm EDT

Sat Jul 20, 10:10pm EDT

Sat Jul 20, 9:10pm EDT

Sat Jul 20, 8:10pm EDT

Sat Jul 20, 7:10pm EDT

Sat Jul 20, 6:10pm EDT

Sat Jul 20, 5:10pm EDT

Sat Jul 20, 4:10pm EDT

Sat Jul 20, 3:10pm EDT

Sat Jul 20, 2:10pm EDT

Sat Jul 20, 1:10pm EDT

Sat Jul 20, 12:10pm EDT

Sat Jul 20, 11:10am EDT

Sat Jul 20, 10:10am EDT

Sat Jul 20, 9:10am EDT

Sat Jul 20, 8:10am EDT

Sat Jul 20, 7:10am EDT

Sat Jul 20, 6:10am EDT

Sat Jul 20, 5:10am EDT

Sat Jul 20, 4:10am EDT

Sat Jul 20, 3:10am EDT

Sat Jul 20, 2:10am EDT

Sat Jul 20, 1:10am EDT

Sat Jul 20, 12:10am EDT

Fri Jul 19, 11:10pm EDT

Fri Jul 19, 10:10pm EDT

Fri Jul 19, 9:10pm EDT

Fri Jul 19, 8:10pm EDT

Fri Jul 19, 7:10pm EDT

Fri Jul 19, 6:10pm EDT

Fri Jul 19, 5:10pm EDT

Fri Jul 19, 4:10pm EDT

Fri Jul 19, 3:10pm EDT

Fri Jul 19, 2:10pm EDT

Fri Jul 19, 1:10pm EDT

Fri Jul 19, 12:10pm EDT

Fri Jul 19, 11:10am EDT

Fri Jul 19, 10:10am EDT

Fri Jul 19, 9:10am EDT

Fri Jul 19, 8:10am EDT

Fri Jul 19, 7:10am EDT

Fri Jul 19, 6:10am EDT

Fri Jul 19, 5:10am EDT

Fri Jul 19, 4:10am EDT

Fri Jul 19, 3:10am EDT

Fri Jul 19, 1:10am EDT

Fri Jul 19, 12:10am EDT

Thu Jul 18, 11:10pm EDT

Thu Jul 18, 10:10pm EDT

Thu Jul 18, 9:10pm EDT

Thu Jul 18, 8:10pm EDT

Thu Jul 18, 7:10pm EDT

Thu Jul 18, 6:10pm EDT

Thu Jul 18, 5:10pm EDT

Thu Jul 18, 4:10pm EDT

Thu Jul 18, 3:10pm EDT

Thu Jul 18, 2:10pm EDT

Thu Jul 18, 1:10pm EDT